Погода в Чарске

Казахстан     49°35′05″N   81°02′49″E
темп.,
°C
ветер,
м/с
пор.,
м/с
влажн.,
%
обл.,
%
осадки,
мм/ч
давл.,
гПа
погр.,
м
2 июля, сб
сб200:00+16ссз33360 0.0 100937
03:00+14ссв01420 0.0 101011
06:00+16юв22381 0.0 101054
09:00+22ююв11253 0.0 10101455
12:00+25сз342277 0.0 10093128
15:00+26сз451893 0.0 10083433
18:00+26с551825 0.0 10073261
21:00+20ссв33255 0.0 100839
3 июля, вс
вс300:00+16юв223462 0.0 100812
03:00+16юв224057 0.0 100713
06:00+17юв22399 0.0 100770
09:00+23всв11286 0.0 1007900
12:00+26ссз342179 0.0 10063543
15:00+28ссз551743 0.0 10053643
18:00+27ссз752015 0.0 10052830
21:00+21в510340 0.0 1006197
4 июля, пн
пн400:00+17юв34480 0.0 100662
03:00+16юв3350100 0.0 100533
06:00+17вюв3449100 0.0 1005115
09:00+25юв442813 0.0 1004664
12:00+29юз1215100 0.0 10033084
15:00+30ссз2213100 0.0 10012912
18:00+30с4313100 0.0 9991798
21:00+23в51033100 0.0 999176
5 июля, вт
вт500:00+21ююв41134100 0.0 999233
03:00+20ююв51137100 0.0 998243
06:00+24юз61327100 0.0 998693
09:00+26юз89355 0.2 10001574
12:00+28юз7113222 0.3 9992393
15:00+33зюз13141595 0.0 9964469
18:00+28з6102299 0.0 9992193
21:00+24з510277 0.0 1001336
6 июля, ср
ср600:00+20з343740 0.0 100461
03:00+19зюз34447 0.0 100556
06:00+20ююз38455 0.0 1006310
09:00+26зюз7112633 0.0 10063211
12:00+29з10122077 0.0 10053895
15:00+30з9121774 0.0 10043919
18:00+28сз892399 0.0 10053077
21:00+22ссз34405 0.0 100745